Location: Beuerbach
(48.1459°N, 10.9174°E)
Time: 03:54:27
(UTC+00:00)

Okean 1-7 - Pass Details

Date: 23 May 2024
Orbit: 579 x 604 km, 82.5° (Epoch: 19 June)

Event Time Altitude Azimuth Distance (km) Brightness Sun altitude
Exits shadow 01:30:35 20° 247° (WSW) 1,418 4.4 -14.6°
Maximum altitude 01:32:34 28° 289° (WNW) 1,147 4.3 -14.5°
Drops below altitude 10° 01:36:18 10° 349° (NNW) 1,958 6.3 -14.1°
Sets 01:38:48 0° 1° (N) 2,869 7.5 -13.9°
